Time,TemperatureF,DewpointF,PressureIn,WindDirection,WindDirectionDegrees,WindSpeedMPH,WindSpeedGustMPH,Humidity,HourlyPrecipIn,Conditions,Clouds,dailyrainin,SoftwareType,DateUTC
2013-04-15 00:02:00,68.9,66.0,29.71,SSE,156,5.0,-999.0,90,-99.99,,,0.00,weatherlink.com 1.10,2013-04-15 05:02:00,
2013-04-15 00:18:00,68.8,66.0,29.72,SSE,155,5.0,-999.0,91,-99.99,,,0.00,weatherlink.com 1.10,2013-04-15 05:18:00,
2013-04-15 00:33:00,69.0,66.0,29.72,SSE,164,5.0,-999.0,91,-99.99,,,0.00,weatherlink.com 1.10,2013-04-15 05:33:00,
2013-04-15 00:48:00,69.2,67.0,29.73,South,190,11.0,-999.0,91,-99.99,,,0.00,weatherlink.com 1.10,2013-04-15 05:48:00,
2013-04-15 01:03:00,69.4,66.0,29.73,South,190,11.0,-999.0,90,-99.99,,,0.00,weatherlink.com 1.10,2013-04-15 06:03:00,
2013-04-15 01:18:00,69.4,66.0,29.73,SE,141,5.0,-999.0,90,-99.99,,,0.00,weatherlink.com 1.10,2013-04-15 06:18:00,
2013-04-15 01:33:00,69.1,66.0,29.72,South,174,4.0,-999.0,90,-99.99,,,0.00,weatherlink.com 1.10,2013-04-15 06:33:00,
2013-04-15 01:48:00,68.8,66.0,29.72,SSE,158,4.0,-999.0,91,-99.99,,,0.00,weatherlink.com 1.10,2013-04-15 06:48:00,
2013-04-15 02:03:00,68.8,66.0,29.72,SSE,158,5.0,-999.0,91,-99.99,,,0.00,weatherlink.com 1.10,2013-04-15 07:03:00,
2013-04-15 02:48:00,69.1,66.0,29.73,South,174,3.0,-999.0,91,-99.99,,,0.00,weatherlink.com 1.10,2013-04-15 07:48:00,
2013-04-15 03:04:00,69.1,66.0,29.73,South,174,5.0,-999.0,90,-99.99,,,0.00,weatherlink.com 1.10,2013-04-15 08:04:00,
2013-04-15 03:19:00,69.1,66.0,29.73,SSW,204,8.0,-999.0,90,-99.99,,,0.00,weatherlink.com 1.10,2013-04-15 08:19:00,
2013-04-15 03:34:00,69.2,66.0,29.73,SSE,159,3.0,-999.0,90,-99.99,,,0.00,weatherlink.com 1.10,2013-04-15 08:34:00,
2013-04-15 03:49:00,69.2,66.0,29.73,SSW,196,13.0,-999.0,90,-99.99,,,0.00,weatherlink.com 1.10,2013-04-15 08:49:00,
2013-04-15 04:04:00,69.3,66.0,29.74,SSE,165,5.0,-999.0,90,-99.99,,,0.00,weatherlink.com 1.10,2013-04-15 09:04:00,
2013-04-15 04:20:00,69.3,66.0,29.74,South,176,3.0,-999.0,90,-99.99,,,0.00,weatherlink.com 1.10,2013-04-15 09:20:00,
2013-04-15 04:35:00,69.3,66.0,29.74,SSE,168,7.0,-999.0,90,-99.99,,,0.00,weatherlink.com 1.10,2013-04-15 09:35:00,
2013-04-15 04:50:00,69.3,66.0,29.75,SSE,149,8.0,-999.0,90,-99.99,,,0.00,weatherlink.com 1.10,2013-04-15 09:50:00,
2013-04-15 05:04:00,69.4,66.0,29.75,SSE,162,5.0,-999.0,90,-99.99,,,0.00,weatherlink.com 1.10,2013-04-15 10:04:00,
2013-04-15 05:20:00,69.4,66.0,29.75,South,174,7.0,-999.0,90,-99.99,,,0.00,weatherlink.com 1.10,2013-04-15 10:20:00,
2013-04-15 05:34:00,69.4,66.0,29.75,SSE,158,9.0,-999.0,90,-99.99,,,0.00,weatherlink.com 1.10,2013-04-15 10:34:00,
2013-04-15 05:50:00,69.3,67.0,29.76,South,172,6.0,-999.0,91,-99.99,,,0.00,weatherlink.com 1.10,2013-04-15 10:50:00,
2013-04-15 06:05:00,69.4,67.0,29.76,SSE,156,6.0,-999.0,91,-99.99,,,0.00,weatherlink.com 1.10,2013-04-15 11:05:00,
2013-04-15 06:19:00,69.4,67.0,29.76,SSE,160,7.0,-999.0,91,-99.99,,,0.00,weatherlink.com 1.10,2013-04-15 11:19:00,
2013-04-15 06:34:00,69.5,67.0,29.77,SSW,203,4.0,-999.0,90,-99.99,,,0.00,weatherlink.com 1.10,2013-04-15 11:34:00,
2013-04-15 07:36:00,69.8,67.0,29.79,SSE,168,5.0,-999.0,90,-99.99,,,0.00,weatherlink.com 1.10,2013-04-15 12:36:00,
2013-04-15 07:51:00,69.9,67.0,29.80,South,172,7.0,-999.0,90,-99.99,,,0.00,weatherlink.com 1.10,2013-04-15 12:51:00,
2013-04-15 08:05:00,70.0,67.0,29.80,South,191,4.0,-999.0,89,-99.99,,,0.00,weatherlink.com 1.10,2013-04-15 13:05:00,
2013-04-15 08:21:00,70.0,67.0,29.81,South,183,6.0,-999.0,90,-99.99,,,0.00,weatherlink.com 1.10,2013-04-15 13:21:00,
2013-04-15 08:35:00,70.1,67.0,29.81,SW,218,3.0,-999.0,90,-99.99,,,0.00,weatherlink.com 1.10,2013-04-15 13:35:00,
2013-04-15 08:51:00,70.1,67.0,29.81,South,173,4.0,-999.0,90,-99.99,,,0.00,weatherlink.com 1.10,2013-04-15 13:51:00,
2013-04-15 09:06:00,70.1,67.0,29.81,South,191,4.0,-999.0,90,-99.99,,,0.00,weatherlink.com 1.10,2013-04-15 14:06:00,
2013-04-15 09:21:00,70.2,67.0,29.82,South,176,5.0,-999.0,90,-99.99,,,0.00,weatherlink.com 1.10,2013-04-15 14:21:00,
2013-04-15 09:37:00,70.6,68.0,29.82,SE,144,9.0,-999.0,90,-99.99,,,0.00,weatherlink.com 1.10,2013-04-15 14:37:00,
2013-04-15 09:51:00,71.2,68.0,29.82,South,169,6.0,-999.0,89,-99.99,,,0.00,weatherlink.com 1.10,2013-04-15 14:51:00,
2013-04-15 10:06:00,72.1,68.0,29.82,South,178,4.0,-999.0,87,-99.99,,,0.00,weatherlink.com 1.10,2013-04-15 15:06:00,
2013-04-15 10:22:00,72.7,68.0,29.83,SE,132,11.0,-999.0,86,-99.99,,,0.00,weatherlink.com 1.10,2013-04-15 15:22:00,
2013-04-15 10:37:00,73.3,69.0,29.83,SSE,167,9.0,-999.0,85,-99.99,,,0.00,weatherlink.com 1.10,2013-04-15 15:37:00,
2013-04-15 10:53:00,73.6,69.0,29.84,SW,230,9.0,-999.0,84,-99.99,,,0.00,weatherlink.com 1.10,2013-04-15 15:53:00,
2013-04-15 11:07:00,74.5,69.0,29.84,SSW,193,2.0,-999.0,83,-99.99,,,0.00,weatherlink.com 1.10,2013-04-15 16:07:00,
2013-04-15 11:23:00,75.6,70.0,29.84,SSE,148,6.0,-999.0,82,-99.99,,,0.00,weatherlink.com 1.10,2013-04-15 16:23:00,
2013-04-15 11:37:00,75.5,69.0,29.84,South,170,2.0,-999.0,81,-99.99,,,0.00,weatherlink.com 1.10,2013-04-15 16:37:00,
2013-04-15 11:53:00,77.2,70.0,29.83,South,180,11.0,-999.0,78,-99.99,,,0.00,weatherlink.com 1.10,2013-04-15 16:53:00,
2013-04-15 12:09:00,77.8,70.0,29.83,SSW,210,8.0,-999.0,78,-99.99,,,0.00,weatherlink.com 1.10,2013-04-15 17:09:00,
2013-04-15 12:23:00,78.2,70.0,29.82,SSW,199,6.0,-999.0,75,-99.99,,,0.00,weatherlink.com 1.10,2013-04-15 17:23:00,
2013-04-15 12:37:00,79.3,70.0,29.82,SSE,153,10.0,-999.0,73,-99.99,,,0.00,weatherlink.com 1.10,2013-04-15 17:37:00,
2013-04-15 12:53:00,79.6,70.0,29.82,South,174,7.0,-999.0,73,-99.99,,,0.00,weatherlink.com 1.10,2013-04-15 17:53:00,
2013-04-15 13:07:00,80.2,70.0,29.82,SSW,200,4.0,-999.0,71,-99.99,,,0.00,weatherlink.com 1.10,2013-04-15 18:07:00,
2013-04-15 13:23:00,80.6,70.0,29.81,SSW,207,6.0,-999.0,70,-99.99,,,0.00,weatherlink.com 1.10,2013-04-15 18:23:00,
2013-04-15 13:38:00,80.5,70.0,29.80,SSE,155,13.0,-999.0,71,-99.99,,,0.00,weatherlink.com 1.10,2013-04-15 18:38:00,
2013-04-15 13:53:00,81.2,71.0,29.80,South,170,8.0,-999.0,70,-99.99,,,0.00,weatherlink.com 1.10,2013-04-15 18:53:00,
2013-04-15 14:08:00,82.6,71.0,29.80,SSE,152,6.0,-999.0,68,-99.99,,,0.00,weatherlink.com 1.10,2013-04-15 19:08:00,
2013-04-15 14:23:00,83.3,70.0,29.80,South,179,7.0,-999.0,65,-99.99,,,0.00,weatherlink.com 1.10,2013-04-15 19:23:00,
2013-04-15 14:39:00,81.7,71.0,29.80,South,183,4.0,-999.0,70,-99.99,,,0.00,weatherlink.com 1.10,2013-04-15 19:39:00,
2013-04-15 14:53:00,82.9,71.0,29.79,South,175,11.0,-999.0,67,-99.99,,,0.00,weatherlink.com 1.10,2013-04-15 19:53:00,
2013-04-15 15:08:00,82.9,71.0,29.79,South,178,9.0,-999.0,67,-99.99,,,0.00,weatherlink.com 1.10,2013-04-15 20:08:00,
2013-04-15 15:24:00,83.1,71.0,29.78,SSE,166,6.0,-999.0,66,-99.99,,,0.00,weatherlink.com 1.10,2013-04-15 20:24:00,
2013-04-15 15:38:00,83.1,71.0,29.78,SSE,157,7.0,-999.0,67,-99.99,,,0.00,weatherlink.com 1.10,2013-04-15 20:38:00,
2013-04-15 15:54:00,83.5,71.0,29.77,SE,126,9.0,-999.0,65,-99.99,,,0.00,weatherlink.com 1.10,2013-04-15 20:54:00,
2013-04-15 16:08:00,83.6,70.0,29.77,SSE,161,11.0,-999.0,64,-99.99,,,0.00,weatherlink.com 1.10,2013-04-15 21:08:00,
2013-04-15 16:24:00,84.0,69.0,29.77,SE,138,11.0,-999.0,61,-99.99,,,0.00,weatherlink.com 1.10,2013-04-15 21:24:00,
2013-04-15 16:39:00,84.2,70.0,29.76,SSE,166,12.0,-999.0,63,-99.99,,,0.00,weatherlink.com 1.10,2013-04-15 21:39:00,
2013-04-15 16:55:00,84.3,70.0,29.76,SSE,153,5.0,-999.0,63,-99.99,,,0.00,weatherlink.com 1.10,2013-04-15 21:55:00,
2013-04-15 17:08:00,84.4,70.0,29.76,SSE,162,6.0,-999.0,63,-99.99,,,0.00,weatherlink.com 1.10,2013-04-15 22:08:00,
2013-04-15 17:24:00,84.4,69.0,29.75,SE,124,8.0,-999.0,61,-99.99,,,0.00,weatherlink.com 1.10,2013-04-15 22:24:00,
2013-04-15 17:40:00,84.2,70.0,29.75,SE,142,7.0,-999.0,62,-99.99,,,0.00,weatherlink.com 1.10,2013-04-15 22:40:00,
2013-04-15 17:55:00,84.1,70.0,29.75,SSE,157,5.0,-999.0,63,-99.99,,,0.00,weatherlink.com 1.10,2013-04-15 22:55:00,
2013-04-15 18:09:00,83.2,68.0,29.76,ESE,118,10.0,-999.0,60,-99.99,,,0.00,weatherlink.com 1.10,2013-04-15 23:09:00,
2013-04-15 18:25:00,82.6,69.0,29.76,SSE,161,6.0,-999.0,63,-99.99,,,0.00,weatherlink.com 1.10,2013-04-15 23:25:00,
2013-04-15 18:40:00,81.8,68.0,29.76,South,170,12.0,-999.0,63,-99.99,,,0.00,weatherlink.com 1.10,2013-04-15 23:40:00,
2013-04-15 18:55:00,81.1,68.0,29.76,SE,141,13.0,-999.0,65,-99.99,,,0.00,weatherlink.com 1.10,2013-04-15 23:55:00,
2013-04-15 19:09:00,80.8,68.0,29.76,SSE,159,10.0,-999.0,66,-99.99,,,0.00,weatherlink.com 1.10,2013-04-16 00:09:00,
2013-04-15 19:26:00,80.2,69.0,29.77,SSE,163,6.0,-999.0,69,-99.99,,,0.00,weatherlink.com 1.10,2013-04-16 00:26:00,
2013-04-15 19:40:00,79.6,69.0,29.77,SSE,158,3.0,-999.0,70,-99.99,,,0.00,weatherlink.com 1.10,2013-04-16 00:40:00,
2013-04-15 19:54:00,78.8,69.0,29.78,SSE,150,6.0,-999.0,72,-99.99,,,0.00,weatherlink.com 1.10,2013-04-16 00:54:00,
2013-04-15 20:10:00,78.1,69.0,29.79,SSE,158,7.0,-999.0,73,-99.99,,,0.00,weatherlink.com 1.10,2013-04-16 01:10:00,
2013-04-15 20:26:00,77.1,69.0,29.79,SSE,154,6.0,-999.0,75,-99.99,,,0.00,weatherlink.com 1.10,2013-04-16 01:26:00,
2013-04-15 20:41:00,76.5,69.0,29.80,SE,145,5.0,-999.0,77,-99.99,,,0.00,weatherlink.com 1.10,2013-04-16 01:41:00,
2013-04-15 21:11:00,75.5,69.0,29.81,ESE,122,8.0,-999.0,80,-99.99,,,0.00,weatherlink.com 1.10,2013-04-16 02:11:00,
2013-04-15 21:26:00,75.2,69.0,29.81,SE,127,9.0,-999.0,81,-99.99,,,0.00,weatherlink.com 1.10,2013-04-16 02:26:00,
2013-04-15 21:41:00,74.8,69.0,29.82,SE,144,10.0,-999.0,83,-99.99,,,0.00,weatherlink.com 1.10,2013-04-16 02:41:00,
2013-04-15 21:56:00,74.3,69.0,29.83,SE,125,9.0,-999.0,84,-99.99,,,0.00,weatherlink.com 1.10,2013-04-16 02:56:00,
2013-04-15 22:12:00,73.7,69.0,29.84,SE,146,6.0,-999.0,85,-99.99,,,0.00,weatherlink.com 1.10,2013-04-16 03:12:00,
2013-04-15 22:42:00,73.7,69.0,29.84,SE,127,6.0,-999.0,86,-99.99,,,0.00,weatherlink.com 1.10,2013-04-16 03:42:00,
2013-04-15 22:56:00,73.6,69.0,29.84,SSE,147,6.0,-999.0,86,-99.99,,,0.00,weatherlink.com 1.10,2013-04-16 03:56:00,
2013-04-15 23:11:00,73.7,69.0,29.84,SSE,151,10.0,-999.0,86,-99.99,,,0.00,weatherlink.com 1.10,2013-04-16 04:11:00,
2013-04-15 23:27:00,73.8,69.0,29.85,SSE,158,8.0,-999.0,86,-99.99,,,0.00,weatherlink.com 1.10,2013-04-16 04:27:00,
2013-04-15 23:57:00,74.0,69.0,29.85,SE,134,7.0,-999.0,85,-99.99,,,0.00,weatherlink.com 1.10,2013-04-16 04:57:00,